Snowfall_Accumulation
0.0 0.0 0.0 0.0 0.0 0.0 0.0 0.0 0.0 0.0 0.0 0.0 0.0 0.0 0.0 0.0 0.0 0.0 0.0 nan nan nan nan nan nan nan nan nan nan nan nan nan nan nan nan nan nan nan
0.0 0.0 0.0 0.0 0.0 0.0 0.0 0.0 0.0 0.0 0.0 0.0 0.0 0.0 0.0 0.0 0.0 0.0 0.0 nan nan nan nan nan nan nan nan nan nan nan nan nan nan nan nan nan nan nan
0.0 0.0 0.0 0.0 0.0 0.0 0.0 0.0 0.0 0.0 0.2 0.2 0.1 0.0 0.0 0.0 0.0 0.0 0.0 0.0 0.0 nan nan nan nan nan nan nan nan nan nan nan nan nan nan nan nan nan
0.0 0.0 0.0 0.0 0.0 0.0 0.0 0.0 0.0 0.1 0.2 0.1 0.1 0.2 0.0 0.0 0.0 0.0 0.0 0.0 0.0 nan nan nan nan nan nan nan nan nan nan nan nan nan nan nan nan nan
0.0 0.0 0.0 0.0 0.0 0.0 0.0 0.2 0.2 0.1 0.2 0.1 0.2 0.1 0.1 0.0 0.0 0.0 0.0 0.0 0.0 nan nan nan nan nan nan nan nan nan nan nan nan nan nan nan nan nan
0.0 0.0 0.0 0.0 0.0 0.1 0.1 0.1 0.1 0.1 0.0 0.0 0.0 0.2 0.0 0.0 0.0 0.0 0.0 0.0 0.0 0.0 nan nan nan nan nan nan nan nan nan nan nan nan nan nan nan nan
0.0 0.0 0.0 nan nan nan 0.0 0.0 0.0 0.0 0.2 0.4 0.3 0.4 0.1 0.0 0.0 0.0 0.0 0.0 0.0 0.0 0.0 0.0 0.0 0.0 0.0 nan nan nan nan nan nan nan nan nan nan nan
0.2 0.1 0.1 0.1 0.0 nan nan nan nan 0.0 0.1 0.9 0.7 0.1 0.0 0.0 0.0 0.0 0.2 0.6 1.0 0.0 0.0 0.0 0.0 0.0 0.0 0.0 nan nan nan nan nan nan nan nan nan nan
0.2 0.2 0.0 0.0 nan 0.0 nan nan nan nan nan 0.0 0.0 0.0 0.0 0.0 0.2 0.4 0.1 0.5 0.3 0.0 0.0 0.1 0.0 0.0 0.0 0.0 nan nan nan nan nan nan nan nan nan nan
0.0 0.0 0.0 0.0 0.0 0.0 0.0 0.1 0.1 0.0 0.0 0.0 0.0 0.0 0.0 0.0 0.0 0.2 0.1 0.0 0.0 0.0 0.0 1.7 0.0 0.0 0.0 0.0 nan nan nan nan nan nan nan nan nan nan
0.0 0.0 0.0 0.0 nan nan 0.0 0.1 0.0 0.0 nan nan nan nan nan nan nan 0.3 0.8 1.7 0.5 0.1 0.1 0.4 0.3 0.3 0.2 0.0 0.0 nan nan nan nan nan nan nan nan nan
0.0 0.0 nan 0.0 nan nan 0.0 0.0 0.1 0.0 0.0 0.0 0.0 0.0 nan nan nan 0.0 1.0 6.7 3.3 2.5 0.3 3.9 0.8 1.1 4.4 0.3 0.3 0.1 0.0 nan nan nan nan nan nan 0.0
0.0 0.0 0.0 nan nan nan nan 0.0 0.0 0.0 0.0 0.0 0.0 0.0 0.0 0.0 0.0 0.1 0.1 5.2 9.3 5.8 0.3 3.6 7.2 2.0 3.3 2.6 0.7 0.5 0.3 0.1 0.2 0.3 nan nan nan 0.1
0.0 0.0 0.0 nan nan nan nan nan nan nan 0.0 0.0 0.2 0.4 0.8 1.0 0.8 0.6 0.1 0.5 0.8 4.3 0.7 3.1 20.6 8.2 11.7 6.3 3.1 0.8 0.8 0.7 1.4 2.1 1.5 nan nan nan
0.0 0.0 nan nan nan nan nan nan nan 0.1 0.1 0.8 0.9 1.5 1.6 1.9 1.8 2.0 1.0 1.3 2.9 1.2 1.4 4.2 10.9 9.4 10.4 10.4 6.6 2.7 3.5 1.5 1.2 2.2 1.2 1.4 1.1 0.5
nan 0.5 nan 0.0 nan nan 0.0 0.0 0.1 0.0 0.4 1.1 1.3 0.8 1.2 3.4 3.4 2.9 7.4 6.5 8.1 5.0 1.8 3.3 5.2 7.3 11.9 5.1 6.4 4.8 2.1 9.4 2.2 1.7 0.9 0.7 0.3 0.1
nan 0.0 0.0 0.0 0.2 0.0 0.0 0.0 0.0 0.0 0.9 0.9 2.0 2.1 1.9 3.1 3.8 4.1 7.9 9.0 12.4 9.4 7.7 3.6 0.8 1.3 2.8 5.3 8.4 2.4 2.1 2.9 2.5 2.6 2.1 2.8 0.8 0.2
0.0 0.0 0.3 0.4 0.4 0.0 0.1 0.1 0.1 0.7 1.0 2.3 2.6 3.0 5.2 6.4 7.8 8.8 9.7 11.1 12.1 8.1 8.0 6.6 6.0 7.1 4.1 2.6 4.3 4.3 2.3 3.1 2.7 1.4 1.2 4.6 2.8 0.3
0.0 0.8 0.9 0.8 0.8 0.9 1.3 1.8 3.2 1.5 2.9 5.8 6.1 7.1 8.0 8.0 9.3 9.7 10.1 8.7 8.3 7.6 8.3 7.4 11.9 13.4 13.3 9.4 1.4 nan 8.9 3.8 2.7 1.9 0.7 1.6 3.3 1.0
0.9 1.3 1.5 1.2 1.2 2.0 2.4 4.1 4.5 3.9 5.4 7.1 8.4 9.9 11.4 12.8 12.4 11.3 9.3 10.8 8.3 8.2 8.7 8.7 11.8 17.1 21.8 18.2 12.7 4.6 nan 4.3 3.2 4.1 4.3 0.7 0.4 nan
1.0 1.2 0.9 1.4 2.0 2.8 3.3 4.8 5.1 9.0 12.4 13.8 10.9 12.1 11.6 13.6 11.0 9.0 7.5 4.9 nan 7.8 10.5 8.7 8.1 nan 12.5 10.2 9.9 2.7 2.1 nan 0.7 5.8 4.7 4.1 3.2 0.8
0.7 1.2 1.1 1.7 2.5 4.0 5.9 6.7 8.6 8.8 10.1 9.9 10.7 11.8 11.2 10.7 11.3 8.2 5.2 8.2 4.8 6.6 9.3 7.9 5.7 7.9 12.2 12.7 9.9 4.4 2.5 0.9 nan nan nan nan 11.3 15.9
1.0 1.3 1.7 2.7 3.6 5.2 6.3 7.8 9.9 10.3 9.9 12.3 12.3 10.8 10.0 11.0 5.8 5.4 5.1 4.2 5.6 7.3 5.7 6.6 4.9 5.1 6.7 8.7 11.6 6.6 3.4 2.3 1.4 2.2 2.1 nan nan nan
Water_Equivalent
0.00 0.00 0.00 0.00 0.00 0.00 0.00 0.00 0.00 0.00 0.00 0.00 0.00 0.00 0.00 0.00 0.00 0.00 0.00 nan nan nan nan nan nan nan nan nan nan nan nan nan nan nan nan nan nan nan
0.00 0.00 0.00 0.00 0.00 0.00 0.00 0.00 0.00 0.00 0.00 0.00 0.00 0.00 0.00 0.00 0.00 0.00 0.00 nan nan nan nan nan nan nan nan nan nan nan nan nan nan nan nan nan nan nan
0.00 0.00 0.00 0.00 0.00 0.00 0.00 0.00 0.00 0.02 0.08 0.07 0.04 0.02 0.01 0.00 0.00 0.00 0.00 0.00 0.00 nan nan nan nan nan nan nan nan nan nan nan nan nan nan nan nan nan
0.00 0.00 0.00 0.00 0.00 0.00 0.00 0.00 0.00 0.03 0.09 0.02 0.03 0.07 0.00 0.00 0.00 0.00 0.00 0.00 0.00 nan nan nan nan nan nan nan nan nan nan nan nan nan nan nan nan nan
0.00 0.00 0.00 0.00 0.00 0.00 0.02 0.07 0.06 0.02 0.06 0.04 0.06 0.02 0.03 0.00 0.00 0.00 0.00 0.00 0.00 nan nan nan nan nan nan nan nan nan nan nan nan nan nan nan nan nan
0.00 0.00 0.00 0.00 0.02 0.03 0.02 0.02 0.02 0.04 0.01 0.01 0.01 0.06 0.01 0.01 0.00 0.00 0.00 0.00 0.00 0.00 nan nan nan nan nan nan nan nan nan nan nan nan nan nan nan nan
0.02 0.00 0.01 nan nan nan 0.00 0.00 0.01 0.01 0.05 0.15 0.08 0.11 0.03 0.00 0.00 0.00 0.00 0.00 0.00 0.00 0.00 0.00 0.00 0.00 0.00 nan nan nan nan nan nan nan nan nan nan nan
0.06 0.05 0.03 0.02 0.01 nan nan nan nan 0.00 0.04 0.22 0.17 0.02 0.00 0.00 0.00 0.00 0.05 0.13 0.17 0.00 0.00 0.00 0.00 0.00 0.00 0.00 nan nan nan nan nan nan nan nan nan nan
0.09 0.05 0.01 0.00 nan 0.00 nan nan nan nan nan 0.00 0.00 0.00 0.00 0.00 0.05 0.09 0.02 0.10 0.05 0.00 0.00 0.01 0.00 0.00 0.00 0.00 nan nan nan nan nan nan nan nan nan nan
0.01 0.00 0.00 0.00 0.00 0.00 0.00 0.02 0.01 0.00 0.00 0.00 0.00 0.00 0.00 0.00 0.00 0.04 0.02 0.01 0.01 0.00 0.00 0.33 0.00 0.00 0.00 0.00 nan nan nan nan nan nan nan nan nan nan
0.00 0.00 0.00 0.00 nan nan 0.01 0.03 0.00 0.00 nan nan nan nan nan nan nan 0.08 0.19 0.36 0.13 0.05 0.03 0.11 0.08 0.10 0.07 0.01 0.00 nan nan nan nan nan nan nan nan nan
0.00 0.00 nan 0.00 nan nan 0.00 0.00 0.01 0.00 0.01 0.01 0.00 0.00 nan nan nan 0.00 0.23 1.10 0.59 0.43 0.10 0.63 0.18 0.23 0.69 0.11 0.12 0.03 0.00 nan nan nan nan nan nan 0.00
0.01 0.00 0.00 nan nan nan nan 0.00 0.00 0.00 0.00 0.00 0.00 0.00 0.00 0.01 0.00 0.02 0.02 0.92 1.42 0.95 0.09 0.67 1.11 0.39 0.61 0.44 0.19 0.15 0.10 0.04 0.05 0.08 nan nan nan 0.03
0.00 0.00 0.00 nan nan nan nan nan nan nan 0.00 0.00 0.06 0.14 0.22 0.26 0.26 0.20 0.03 0.13 0.19 0.66 0.15 0.60 2.80 1.12 1.46 0.80 0.44 0.20 0.19 0.20 0.35 0.54 0.45 nan nan nan
0.01 0.00 nan nan nan nan nan nan nan 0.02 0.02 0.17 0.26 0.44 0.43 0.51 0.41 0.39 0.24 0.29 0.57 0.26 0.29 0.79 1.62 1.29 1.36 1.25 0.78 0.38 0.55 0.37 0.34 0.55 0.33 0.43 0.36 0.16
nan 0.14 nan 0.00 nan nan 0.00 0.00 0.03 0.00 0.07 0.19 0.25 0.21 0.30 0.67 0.61 0.57 1.10 1.00 1.19 0.84 0.42 0.71 0.87 1.03 1.44 0.67 0.83 0.60 0.37 1.25 0.51 0.47 0.29 0.25 0.10 0.04
nan 0.00 0.00 0.00 0.04 0.00 0.00 0.00 0.00 0.00 0.17 0.19 0.35 0.36 0.37 0.56 0.63 0.75 1.14 1.32 1.61 1.21 0.96 0.66 0.17 0.25 0.49 0.71 1.03 0.39 0.36 0.52 0.62 0.70 0.46 0.63 0.28 0.08
0.00 0.00 0.06 0.08 0.08 0.01 0.01 0.02 0.03 0.15 0.19 0.43 0.47 0.53 0.80 0.94 1.08 1.26 1.44 1.48 1.50 1.00 0.98 0.88 0.84 0.87 0.72 0.49 0.68 0.61 0.43 0.58 0.66 0.39 0.31 0.76 0.58 0.12
0.00 0.15 0.16 0.15 0.15 0.17 0.23 0.33 0.51 0.32 0.64 1.08 1.00 1.07 1.12 1.13 1.25 1.27 1.30 1.12 1.02 0.93 1.02 0.95 1.39 1.58 1.51 1.02 0.28 nan 1.39 0.74 0.60 0.42 0.20 0.38 0.64 0.32
0.16 0.23 0.26 0.21 0.21 0.32 0.40 0.66 0.72 0.64 0.85 1.06 1.19 1.36 1.56 1.72 1.62 1.41 1.15 1.27 1.00 1.05 1.06 1.18 1.60 2.15 2.71 2.19 1.49 0.72 nan 0.79 0.60 0.67 0.79 0.20 0.12 nan
0.17 0.22 0.17 0.26 0.34 0.50 0.55 0.72 0.72 1.20 1.70 1.87 1.45 1.68 1.61 1.80 1.37 1.10 0.91 0.59 nan 0.95 1.20 0.99 1.18 nan 2.06 1.42 1.21 0.41 0.45 nan 0.17 0.96 0.86 0.63 0.52 0.18
0.12 0.20 0.20 0.32 0.45 0.67 0.92 1.01 1.24 1.32 1.38 1.28 1.42 1.58 1.44 1.34 1.35 0.96 0.58 0.95 0.57 0.80 1.07 1.12 0.87 1.25 1.75 1.58 1.14 0.50 0.37 0.23 nan nan nan nan 1.73 2.17
0.21 0.22 0.33 0.51 0.68 0.82 0.96 1.08 1.38 1.39 1.32 1.63 1.63 1.38 1.24 1.29 0.65 0.62 0.58 0.52 0.70 0.85 0.77 0.78 0.69 0.77 0.95 1.19 1.37 0.79 0.39 0.30 0.27 0.40 0.47 nan nan nan
SL_Ratio
nan nan nan nan nan nan nan nan nan nan nan nan nan nan nan nan nan nan nan nan nan nan nan nan nan nan nan nan nan nan nan nan nan nan nan nan nan nan
nan nan nan nan nan nan nan nan nan nan nan nan nan nan nan nan nan nan nan nan nan nan nan nan nan nan nan nan nan nan nan nan nan nan nan nan nan nan
nan nan nan nan nan nan nan nan nan 2.6 2.7 2.5 2.5 2.5 2.6 nan nan nan nan nan nan nan nan nan nan nan nan nan nan nan nan nan nan nan nan nan nan nan
nan nan nan nan nan nan nan nan 2.0 2.5 2.5 2.5 2.9 3.0 2.5 nan nan nan nan nan nan nan nan nan nan nan nan nan nan nan nan nan nan nan nan nan nan nan
nan nan nan nan nan 5.0 2.5 2.5 2.5 2.8 2.8 2.9 3.1 3.4 3.4 3.8 nan nan nan nan nan nan nan nan nan nan nan nan nan nan nan nan nan nan nan nan nan nan
nan nan 3.0 2.3 2.5 2.5 2.7 3.0 3.0 3.0 2.9 2.9 2.7 2.8 2.6 2.8 nan nan nan nan nan nan nan nan nan nan nan nan nan nan nan nan nan nan nan nan nan nan
2.5 2.7 2.6 nan nan nan 3.2 2.8 2.9 2.9 2.8 2.9 3.0 3.3 3.3 nan nan nan nan nan nan nan nan nan nan nan nan nan nan nan nan nan nan nan nan nan nan nan
2.6 2.7 2.7 2.7 3.0 nan nan nan nan nan 3.5 3.8 4.0 4.0 nan nan nan 3.8 4.6 4.8 5.9 nan nan nan nan nan nan nan nan nan nan nan nan nan nan nan nan nan
2.7 3.2 3.2 nan nan 3.8 nan nan nan nan nan nan nan nan nan nan 4.7 4.9 4.5 5.1 5.4 nan 5.0 4.7 nan nan nan nan nan nan nan nan nan nan nan nan nan nan
3.3 nan nan nan nan nan nan 3.4 3.5 3.0 nan nan nan nan 3.8 5.0 3.9 4.8 4.7 4.8 2.9 5.0 nan 5.3 nan 2.5 nan nan nan nan nan nan nan nan nan nan nan nan
nan nan nan nan nan nan 3.3 3.9 nan nan nan nan nan nan nan nan nan 3.8 4.3 4.9 4.1 2.5 2.5 4.0 3.4 3.6 3.0 2.5 nan nan nan nan nan nan nan nan nan nan
nan nan nan nan nan nan nan nan 4.3 nan 4.2 4.1 nan nan nan nan nan nan 4.3 6.1 5.5 5.7 3.3 6.2 4.6 4.9 6.4 3.1 2.7 2.7 nan nan nan nan nan nan nan nan
3.3 nan nan nan nan nan nan nan nan nan nan nan nan nan nan 2.4 2.5 3.4 4.1 5.7 6.5 6.1 3.4 5.4 6.5 5.2 5.5 5.9 3.8 3.5 3.2 3.3 3.8 3.7 nan nan nan 2.5
nan nan nan nan nan nan nan nan nan nan nan 7.5 2.8 2.7 3.6 3.6 3.2 3.0 3.4 3.9 4.2 6.5 4.7 5.2 7.4 7.3 8.0 7.9 7.0 4.3 4.1 3.6 4.0 3.9 3.4 nan nan nan
5.2 7.5 nan nan nan nan nan nan nan 3.4 4.2 4.6 3.4 3.5 3.6 3.8 4.3 5.0 4.4 4.4 5.1 4.4 4.6 5.3 6.7 7.3 7.6 8.3 8.5 7.0 6.4 4.0 3.5 3.9 3.6 3.2 3.1 3.0
nan 3.9 nan nan nan nan nan nan 3.5 nan 5.5 5.6 5.2 3.9 3.9 5.1 5.5 5.1 6.8 6.5 6.8 6.0 4.3 4.6 5.9 7.1 8.3 7.5 7.7 7.9 5.5 7.6 4.3 3.5 3.1 2.9 2.7 2.5
nan 6.3 nan nan 4.0 nan nan nan nan 5.0 5.4 5.0 5.6 5.8 5.0 5.5 6.1 5.5 6.9 6.9 7.7 7.8 8.0 5.5 4.7 5.3 5.8 7.4 8.2 6.2 5.8 5.5 4.1 3.7 4.5 4.4 2.8 2.5
6.0 nan 4.9 4.8 5.0 5.0 5.3 5.5 4.0 4.3 5.0 5.2 5.5 5.7 6.5 6.8 7.2 6.9 6.7 7.5 8.0 8.1 8.2 7.6 7.1 8.2 5.8 5.3 6.2 7.0 5.3 5.4 4.1 3.7 3.7 6.1 4.9 2.7
7.0 5.3 5.6 5.5 5.4 5.4 5.4 5.5 6.2 4.6 4.6 5.4 6.1 6.6 7.1 7.1 7.4 7.7 7.8 7.8 8.1 8.2 8.2 7.8 8.5 8.5 8.8 9.2 5.0 nan 6.4 5.1 4.6 4.5 3.5 4.3 5.1 3.2
5.5 5.8 5.9 5.7 5.7 6.1 6.0 6.2 6.3 6.1 6.3 6.7 7.0 7.3 7.3 7.4 7.6 8.0 8.1 8.5 8.3 7.9 8.1 7.3 7.4 7.9 8.0 8.3 8.5 6.4 nan 5.4 5.3 6.1 5.5 3.7 3.0 nan
5.7 5.8 5.4 5.6 5.8 5.7 6.0 6.6 7.1 7.5 7.3 7.4 7.5 7.2 7.2 7.6 8.0 8.2 8.3 8.3 nan 8.2 8.7 8.8 6.8 nan 6.1 7.2 8.2 6.7 4.6 nan 4.3 6.1 5.5 6.4 6.2 4.6
5.8 6.2 5.6 5.3 5.6 5.9 6.4 6.6 7.0 6.7 7.3 7.7 7.5 7.5 7.7 7.9 8.3 8.6 9.0 8.6 8.4 8.2 8.7 7.0 6.5 6.3 6.9 8.1 8.7 8.8 6.6 4.1 nan nan nan nan 6.5 7.4
4.7 5.9 5.2 5.2 5.3 6.3 6.6 7.3 7.2 7.4 7.5 7.5 7.5 7.8 8.1 8.5 8.9 8.8 8.6 8.0 8.0 8.6 7.5 8.4 7.1 6.5 7.0 7.3 8.4 8.3 8.7 7.6 5.4 5.6 4.4 nan nan nan